Location: Unspecified
(0.0000°N, 0.0000°E)
Time: 02:26:46
(UTC+00:00)

Explorer 7 - Pass Details

Date: 01 November 2021
Orbit: 483 x 675 km, 50.3° (Epoch: 27 November)

Event Time Altitude Azimuth Distance (km) Brightness Sun altitude
Exits shadow 04:16:12 15° 216° (SW) 1,762 9.2 -21.1°
Drops below altitude 10° 04:18:10 10° 193° (SSW) 2,104 9.8 -20.6°
Sets 04:21:20 0° 172° (S) 3,011 10.9 -19.9°
